Location: Blackfoot
(53.5367°N, 112.7800°W)
Time: 03:56:57
(UTC-06:00)

Amateur Radio Satellites - All Passes

Search period start: 26 June 2016 03:26
Search period end: 27 June 2016 03:26
Location: Blackfoot, 53.5367°N, 112.7800°W

Satellite Date Start Highest point End Downlink Frequencies (MHz)
Time Altitude Azimuth
STARS 26 Jun 03:35:19 03:38:53 25° 60° (ENE) 03:42:28 437.465
YUBILEINY 26 Jun 03:39:50 03:44:59 17° 291° (WNW) 03:50:09 435.215
AO-7 26 Jun 03:45:00 03:50:39 19° 84° (E) 03:56:17 29.400- 29.500
GONETS M04 26 Jun 03:45:14 03:50:20 16° 39° (NE) 03:55:23
Cosmos 2499 26 Jun 03:45:33 03:49:27 13° 31° (NNE) 03:53:19 435.465 / 435.565
CUBESAT XI-V 26 Jun 03:46:30 03:47:37 11° 48° (NE) 03:48:43 437.345
MOZHAYETS 4 26 Jun 03:59:37 04:04:10 59° 69° (ENE) 04:08:46
SWISSCUBE 26 Jun 04:08:24 04:11:54 20° 270° (W) 04:15:25 437.505
BEESAT 3 26 Jun 04:11:46 04:15:08 27° 120° (ESE) 04:18:30 437.485
AIST 1 26 Jun 04:14:29 04:18:08 27° 67° (ENE) 04:21:46
AO-85 26 Jun 04:14:31 04:18:30 23° 7° (N) 04:22:15 145.980
O/OREOS (USA 219) 26 Jun 04:18:45 04:23:04 47° 112° (ESE) 04:27:23 437.305
PCSat 26 Jun 04:26:40 04:32:05 76° 126° (SE) 04:37:32 145.827
JAS-2 26 Jun 04:27:24 04:31:57 22° 311° (NW) 04:36:09 435.910
KKS-1 26 Jun 04:30:34 04:34:59 66° 257° (WSW) 04:39:25 437.445
Gurwin Techsat 1B 26 Jun 04:31:56 04:37:11 59° 292° (WNW) 04:42:25 435.225
ITUPSAT 1 26 Jun 04:34:27 04:36:57 14° 275° (W) 04:39:27 437.325
BEESAT 26 Jun 04:35:34 04:37:53 13° 275° (W) 04:40:13 436.000
Oscar 19 26 Jun 04:38:43 04:43:04 29° 302° (WNW) 04:47:25 437.125/150
Cosmos 2504 26 Jun 04:41:13 04:47:15 21° 288° (WNW) 04:53:14 435.465 / 435.565
BEESAT 2 26 Jun 04:43:38 04:47:12 32° 122° (ESE) 04:50:46 435.950
ITAMSAT 1 26 Jun 04:54:11 04:59:29 89° 287° (WNW) 05:04:44 435.822/435.867
Cosmos 2491 26 Jun 04:58:39 05:04:52 21° 314° (NW) 05:11:07 435.465 / 435.565
STARS 26 Jun 05:10:46 05:15:01 51° 259° (W) 05:19:18 437.465
CUBESAT XI-V 26 Jun 05:19:26 05:23:59 50° 68° (ENE) 05:28:32 437.345
STRAND 1 26 Jun 05:34:32 05:36:49 13° 46° (NE) 05:39:05 437.568
AO-7 26 Jun 05:36:37 05:45:02 71° 107° (ESE) 05:53:23 29.400- 29.500
Cosmos 2499 26 Jun 05:37:54 05:45:59 36° 59° (ENE) 05:53:47 435.465 / 435.565
MOZHAYETS 4 26 Jun 05:38:05 05:41:43 22° 269° (W) 05:45:23
HORYU 2 26 Jun 05:41:02 05:44:42 24° 93° (E) 05:48:20 437.375
GONETS M04 26 Jun 05:41:29 05:49:54 49° 67° (ENE) 05:58:17
BEESAT 3 26 Jun 05:48:45 05:52:37 53° 320° (NW) 05:56:31 437.485
AIST 1 26 Jun 05:51:53 05:55:54 40° 267° (W) 05:59:52
AO-85 26 Jun 05:55:31 06:00:09 41° 31° (NNE) 06:04:24 145.980
O/OREOS (USA 219) 26 Jun 05:58:37 06:02:39 31° 313° (NW) 06:06:42 437.305
PCSat 26 Jun 06:11:03 06:15:59 34° 329° (NNW) 06:20:57 145.827
NOAA 18 26 Jun 06:12:55 06:14:33 11° 82° (E) 06:16:11 137.9125
Gurwin Techsat 1B 26 Jun 06:13:22 06:16:09 15° 313° (NW) 06:18:57 435.225
NOAA 15 26 Jun 06:13:26 06:16:02 14° 84° (E) 06:18:36 137.62
BEESAT 2 26 Jun 06:21:04 06:24:56 47° 323° (NW) 06:28:50 435.950
BRITE-PL 26 Jun 06:31:19 06:33:43 15° 87° (E) 06:36:04 437.365/2234.400
ITAMSAT 1 26 Jun 06:34:35 06:38:19 20° 308° (NW) 06:42:03 435.822/435.867
Cubesat XI-IV 26 Jun 06:39:47 06:43:18 17° 86° (E) 06:46:47 437.490
AIST 2 26 Jun 06:39:55 06:43:34 31° 122° (ESE) 06:47:16 435.215
LilacSat-2 26 Jun 06:45:47 06:47:55 14° 88° (E) 06:50:02 437.200
CUSAT 1 26 Jun 06:56:20 07:00:17 15° 80° (E) 07:03:56 437.405
CUBESAT XI-V 26 Jun 06:57:38 07:01:37 27° 268° (W) 07:05:37 437.345
STRAND 1 26 Jun 07:09:57 07:14:58 54° 67° (ENE) 07:20:00 437.568
CUTE-I 26 Jun 07:14:18 07:19:05 31° 94° (E) 07:23:49 437.470
HORYU 2 26 Jun 07:17:10 07:21:33 53° 292° (WNW) 07:25:56 437.375
GOMX 1 26 Jun 07:18:34 07:21:40 20° 91° (E) 07:24:47 467.674
BEESAT 3 26 Jun 07:28:09 07:31:07 20° 343° (NNW) 07:34:05 437.485
AO-7 26 Jun 07:29:48 07:37:25 41° 310° (NW) 07:45:02 29.400- 29.500
Cosmos 2499 26 Jun 07:31:05 07:39:58 74° 264° (W) 07:48:27 435.465 / 435.565
AO-85 26 Jun 07:36:12 07:40:47 50° 234° (SW) 07:44:56 145.980
GONETS M04 26 Jun 07:38:33 07:46:53 53° 271° (W) 07:55:15
O/OREOS (USA 219) 26 Jun 07:42:32 07:43:31 11° 337° (NNW) 07:44:31 437.305
NOAA 18 26 Jun 07:50:55 07:56:25 59° 102° (ESE) 08:01:54 137.9125
NOAA 15 26 Jun 07:51:28 07:56:46 74° 104° (ESE) 08:02:01 137.62
PCSat 26 Jun 07:57:00 08:00:58 20° 354° (N) 08:04:57 145.827
HO-68 26 Jun 07:59:42 08:03:45 15° 82° (E) 08:07:46 435.675
PRISM 26 Jun 08:00:07 08:03:41 28° 62° (ENE) 08:07:14 437.425
BEESAT 2 26 Jun 08:00:43 08:03:38 19° 345° (NNW) 08:06:35 435.950
BRITE-PL 26 Jun 08:08:36 08:12:50 74° 288° (WNW) 08:16:58 437.365/2234.400
CINEMA 3 26 Jun 08:11:33 08:13:26 12° 85° (E) 08:15:20 145.822/145.860
CANX-2 26 Jun 08:15:23 08:17:17 13° 85° (E) 08:19:10 2200.000
AIST 2 26 Jun 08:17:54 08:21:56 50° 322° (NW) 08:26:00 435.215
Cubesat XI-IV 26 Jun 08:18:43 08:24:10 88° 108° (ESE) 08:29:34 437.490
LilacSat-2 26 Jun 08:18:49 08:22:42 72° 287° (WNW) 08:26:34 437.200
DANDE 26 Jun 08:31:18 08:38:51 39° 89° (E) 08:45:47 436.750
DOVE 4 26 Jun 08:31:55 08:36:01 47° 99° (E) 08:40:15 437.250
CUSAT 1 26 Jun 08:33:56 08:41:30 62° 98° (E) 08:47:49 437.405
CUTE 1.7 + AOD 2 26 Jun 08:35:12 08:38:03 17° 88° (E) 08:40:52 437.475
SEEDS 26 Jun 08:44:20 08:46:55 16° 87° (E) 08:49:29 437.485
STRAND 1 26 Jun 08:50:00 08:54:26 29° 267° (W) 08:58:55 437.568
CUTE-I 26 Jun 08:54:09 08:59:24 53° 294° (WNW) 09:04:36 437.470
HORYU 2 26 Jun 08:55:59 08:57:11 11° 312° (NW) 08:58:23 437.375
GOMX 1 26 Jun 08:56:04 09:00:08 54° 290° (WNW) 09:04:15 467.674
BEESAT 3 26 Jun 09:07:30 09:10:07 17° 7° (N) 09:12:45 437.485
Cosmos 2491 26 Jun 09:07:32 09:09:21 11° 24° (NNE) 09:11:10 435.465 / 435.565
UWE-3 26 Jun 09:19:38 09:22:05 14° 86° (E) 09:24:33 435.000/436.395/437.385
AO-7 26 Jun 09:23:07 09:28:06 18° 335° (NNW) 09:33:05 29.400- 29.500
FUNcube-1 26 Jun 09:25:22 09:25:58 10° 83° (E) 09:26:34 145.935
Cosmos 2499 26 Jun 09:25:30 09:31:36 21° 288° (WNW) 09:37:34 435.465 / 435.565
AAUSAT CUBESAT 2 26 Jun 09:30:34 09:34:02 24° 92° (E) 09:37:27 437.432
NOAA 15 26 Jun 09:31:56 09:36:06 24° 305° (NW) 09:40:15 137.62
NOAA 18 26 Jun 09:32:00 09:36:49 31° 303° (WNW) 09:41:38 137.9125
TIGRISAT 26 Jun 09:32:37 09:35:50 21° 57° (ENE) 09:39:05 435.000
PRISM 26 Jun 09:34:55 09:38:52 41° 261° (W) 09:42:50 437.425
UNISAT 6 26 Jun 09:36:35 09:40:00 23° 59° (ENE) 09:43:28 437.425
AUBIESAT-1 26 Jun 09:36:50 09:37:00 10° 94° (E) 09:37:11 437.475
GONETS M04 26 Jun 09:37:59 09:41:34 13° 295° (WNW) 09:45:10
BEESAT 2 26 Jun 09:40:05 09:42:49 17° 9° (N) 09:45:34 435.950
PCSat 26 Jun 09:41:45 09:46:12 25° 20° (NNE) 09:50:37 145.827
HO-68 26 Jun 09:45:45 09:52:57 65° 104° (ESE) 10:00:06 435.675
CINEMA 3 26 Jun 09:46:51 09:51:16 80° 103° (ESE) 09:55:55 145.822/145.860
BRITE-PL 26 Jun 09:48:52 09:50:36 12° 308° (NW) 09:52:20 437.365/2234.400
CANX-2 26 Jun 09:49:29 09:53:50 86° 107° (ESE) 09:58:08 2200.000
LilacSat-2 26 Jun 09:55:07 09:56:19 11° 306° (NW) 09:57:32 437.200
AIST 2 26 Jun 09:58:08 10:01:17 20° 345° (NNW) 10:04:27 435.215
Cubesat XI-IV 26 Jun 09:59:39 10:03:38 21° 307° (NW) 10:07:36 437.490
COMPASS 1 26 Jun 10:01:37 10:05:48 56° 101° (E) 10:09:55 437.405
CUBEBUG 2 26 Jun 10:01:44 10:06:04 42° 98° (E) 10:10:29 437.445
DELFI C3 26 Jun 10:05:38 10:07:12 12° 86° (E) 10:08:45 145.870
CUTE 1.7 + AOD 2 26 Jun 10:10:05 10:14:23 70° 289° (WNW) 10:18:39 437.475
DOVE 4 26 Jun 10:10:06 10:13:34 25° 298° (WNW) 10:17:08 437.250
M-CUBED/EXP-1 PRIME 26 Jun 10:11:17 10:14:26 25° 102° (ESE) 10:17:47 437.505
DANDE 26 Jun 10:13:03 10:21:27 68° 288° (WNW) 10:29:01 436.750
ANTELSAT 26 Jun 10:15:33 10:19:41 46° 67° (ENE) 10:23:56 437.575/2403.000
CUSAT 1 26 Jun 10:16:56 10:23:53 38° 295° (WNW) 10:29:42 437.405
SEEDS 26 Jun 10:18:53 10:23:10 76° 287° (WNW) 10:27:24 437.485
NANOSAT C BR1 26 Jun 10:24:21 10:26:35 14° 54° (NE) 10:28:51 145.865
QB50P1 26 Jun 10:25:36 10:28:01 15° 55° (NE) 10:30:27 145.935-145.965
POPSAT HIP 1 26 Jun 10:28:26 10:30:58 16° 55° (NE) 10:33:29 437.405
CUTE-I 26 Jun 10:35:52 10:38:22 13° 315° (NW) 10:40:52 437.470
QB50P2 26 Jun 10:39:23 10:42:27 20° 58° (ENE) 10:45:33 145.880/145.840
ZACube-1 26 Jun 10:39:35 10:43:57 47° 99° (E) 10:48:22 437.345
HUMSAT D 26 Jun 10:40:42 10:43:12 15° 87° (E) 10:45:42 437.325/437.525
POLYITAN 1 26 Jun 10:41:59 10:45:05 20° 58° (ENE) 10:48:11 437.675
DUCHIFAT 1 26 Jun 10:45:16 10:48:16 20° 58° (ENE) 10:51:17 145.980
BEESAT 3 26 Jun 10:45:18 10:48:54 32° 30° (NNE) 10:52:29 437.485
UWE-3 26 Jun 10:54:39 10:59:12 89° 104° (ESE) 11:03:50 435.000/436.395/437.385
Oscar 11 26 Jun 10:54:42 10:59:05 67° 102° (ESE) 11:03:26 145.826/435.025
FUNcube-1 26 Jun 10:58:35 11:03:05 66° 102° (ESE) 11:07:36 145.935
Cosmos 2491 26 Jun 11:02:43 11:10:09 30° 55° (NE) 11:17:33 435.465 / 435.565
RS-15 26 Jun 11:03:07 11:08:26 14° 90° (E) 11:13:50 29.354- 29.394
O/OREOS (USA 219) 26 Jun 11:04:36 11:06:52 13° 30° (NNE) 11:09:07 437.305
AAUSAT CUBESAT 2 26 Jun 11:05:43 11:09:44 45° 292° (WNW) 11:13:42 437.432
TIGRISAT 26 Jun 11:07:50 11:12:07 66° 258° (WSW) 11:16:32 435.000
AUBIESAT-1 26 Jun 11:08:18 11:12:03 77° 111° (ESE) 11:16:04 437.475
UNISAT 6 26 Jun 11:12:09 11:16:24 57° 259° (W) 11:20:47 437.425
AO-7 26 Jun 11:14:32 11:17:40 13° 3° (N) 11:20:48 29.400- 29.500
JAS-2 26 Jun 11:15:35 11:21:19 25° 52° (NE) 11:26:37 435.910
BEESAT 2 26 Jun 11:17:59 11:21:42 35° 32° (NNE) 11:25:24 435.950
CINEMA 3 26 Jun 11:25:00 11:27:58 18° 303° (WNW) 11:31:01 145.822/145.860
PCSat 26 Jun 11:25:15 11:30:39 60° 44° (NE) 11:36:01 145.827
CANX-2 26 Jun 11:26:27 11:29:08 16° 304° (NW) 11:31:48 2200.000
ISS 26 Jun 11:29:02 11:31:47 25° 152° (SSE) 11:34:33 145.825
HO-68 26 Jun 11:33:53 11:40:23 38° 306° (NW) 11:46:53 435.675
COMPASS 1 26 Jun 11:37:48 11:41:02 22° 300° (WNW) 11:44:16 437.405
AIST 2 26 Jun 11:38:11 11:41:08 18° 9° (N) 11:44:05 435.215
CUBEBUG 2 26 Jun 11:38:38 11:42:36 31° 296° (WNW) 11:46:40 437.445
DELFI C3 26 Jun 11:38:39 11:42:42 90° 282° (WNW) 11:46:42 145.870
M-CUBED/EXP-1 PRIME 26 Jun 11:45:41 11:49:07 39° 299° (WNW) 11:52:47 437.505
CUTE 1.7 + AOD 2 26 Jun 11:47:36 11:49:29 13° 308° (NW) 11:51:22 437.475
BUGSAT 1 26 Jun 11:51:01 11:54:41 35° 66° (ENE) 11:58:23 437.445
ANTELSAT 26 Jun 11:53:00 11:56:38 26° 267° (W) 12:00:21 437.575/2403.000
SEEDS 26 Jun 11:56:07 11:58:10 13° 307° (NW) 12:00:13 437.485
NANOSAT C BR1 26 Jun 11:57:31 12:01:42 84° 72° (ENE) 12:05:56 145.865
QB50P1 26 Jun 11:59:01 12:03:13 89° 73° (ENE) 12:07:27 145.935-145.965
DANDE 26 Jun 11:59:25 12:05:36 23° 309° (NW) 12:11:16 436.750
POPSAT HIP 1 26 Jun 12:01:59 12:06:11 87° 259° (W) 12:10:25 437.405
CUSAT 1 26 Jun 12:06:06 12:07:38 11° 316° (NW) 12:09:07 437.405
DX 1 26 Jun 12:10:36 12:12:09 12° 86° (E) 12:13:43 434.975-435.025
QB50P2 26 Jun 12:13:43 12:17:53 64° 258° (WSW) 12:22:06 145.880/145.840
HUMSAT D 26 Jun 12:15:03 12:19:24 81° 286° (WNW) 12:23:43 437.325/437.525
ZACube-1 26 Jun 12:16:14 12:20:04 28° 298° (WNW) 12:23:56 437.345
POLYITAN 1 26 Jun 12:16:21 12:20:30 63° 258° (WSW) 12:24:43 437.675
DUCHIFAT 1 26 Jun 12:19:26 12:23:35 65° 257° (WSW) 12:27:46 145.980
BEESAT 3 26 Jun 12:22:55 12:26:49 58° 232° (SW) 12:30:43 437.485
Oscar 11 26 Jun 12:31:36 12:34:49 20° 302° (WNW) 12:38:01 145.826/435.025
UWE-3 26 Jun 12:32:12 12:35:06 17° 304° (NW) 12:38:03 435.000/436.395/437.385
CUBEBUG 1 26 Jun 12:34:19 12:37:56 25° 93° (E) 12:41:33 437.445
FUNcube-1 26 Jun 12:35:33 12:38:57 21° 301° (WNW) 12:42:22 145.935
VELOX 1 26 Jun 12:35:44 12:39:21 24° 93° (E) 12:42:57 145.980
Gurwin Techsat 1B 26 Jun 12:42:19 12:45:44 18° 50° (NE) 12:49:11 435.225
O/OREOS (USA 219) 26 Jun 12:43:04 12:47:25 47° 53° (NE) 12:51:45 437.305
AUBIESAT-1 26 Jun 12:43:49 12:46:11 17° 308° (NW) 12:48:40 437.475
Oscar 19 26 Jun 12:43:55 12:48:21 30° 59° (ENE) 12:52:47 437.125/150
YUBILEINY 26 Jun 12:54:28 13:02:01 35° 81° (E) 13:09:37 435.215
BEESAT 2 26 Jun 12:55:49 12:59:42 49° 233° (SW) 13:03:33 435.950
JAS-2 26 Jun 12:58:02 13:05:38 83° 72° (ENE) 13:12:31 435.910
50 SAT 26 Jun 12:58:03 13:01:35 40° 98° (E) 13:05:05 437.505
Cosmos 2491 26 Jun 12:59:27 13:08:14 87° 261° (W) 13:16:58 435.465 / 435.565
ESTCUBE 1 26 Jun 13:01:25 13:05:56 61° 101° (ESE) 13:10:23 437.505/2401.250
AO-7 26 Jun 13:01:48 13:07:21 20° 30° (NNE) 13:12:55 29.400- 29.500
ITAMSAT 1 26 Jun 13:04:09 13:06:10 12° 44° (NE) 13:08:11 435.822/435.867
ISS 26 Jun 13:04:39 13:07:53 57° 171° (S) 13:11:06 145.825
RS-15 26 Jun 13:06:43 13:17:39 53° 116° (ESE) 13:29:08 29.354- 29.394
PCSat 26 Jun 13:09:00 13:13:50 33° 245° (WSW) 13:18:38 145.827
DELFI C3 26 Jun 13:14:49 13:16:59 14° 305° (NW) 13:19:08 145.870
AISAT 26 Jun 13:15:52 13:20:13 57° 101° (ESE) 13:24:32 437.250
AIST 2 26 Jun 13:16:48 13:20:41 36° 32° (NNE) 13:24:33 435.215
HO-68 26 Jun 13:22:54 13:26:15 14° 329° (NNW) 13:29:36 435.675
BUGSAT 1 26 Jun 13:26:38 13:30:09 29° 265° (W) 13:33:41 437.445
UKube-1 26 Jun 13:29:33 13:33:45 48° 100° (E) 13:37:55 .
TISAT 1 26 Jun 13:31:09 13:32:58 12° 86° (E) 13:34:47 437.305
SPROUT 26 Jun 13:35:52 13:39:58 42° 98° (E) 13:44:02 437.525
NANOSAT C BR1 26 Jun 13:35:53 13:38:03 14° 273° (W) 13:40:13 145.865
QB50P1 26 Jun 13:37:43 13:39:39 13° 274° (W) 13:41:36 145.935-145.965
POPSAT HIP 1 26 Jun 13:40:57 13:42:39 12° 274° (W) 13:44:23 437.405
Cosmos 2504 26 Jun 13:41:23 13:47:26 23° 74° (ENE) 13:53:45 435.465 / 435.565
DX 1 26 Jun 13:44:44 13:49:06 80° 105° (ESE) 13:53:27 434.975-435.025
HUMSAT D 26 Jun 13:52:02 13:54:23 14° 306° (NW) 13:56:43 437.325/437.525
CUBEBUG 1 26 Jun 14:10:18 14:14:27 46° 292° (WNW) 14:18:34 437.445
VELOX 1 26 Jun 14:11:50 14:16:05 49° 292° (WNW) 14:20:19 145.980
Gurwin Techsat 1B 26 Jun 14:19:36 14:24:55 75° 71° (ENE) 14:30:15 435.225
Oscar 19 26 Jun 14:22:25 14:27:28 55° 259° (W) 14:32:32 437.125/150
O/OREOS (USA 219) 26 Jun 14:22:47 14:26:39 29° 253° (WSW) 14:30:31 437.305
SWISSCUBE 26 Jun 14:24:40 14:26:17 11° 84° (E) 14:27:53 437.505
50 SAT 26 Jun 14:32:06 14:35:07 23° 298° (WNW) 14:38:06 437.505
ESTCUBE 1 26 Jun 14:38:52 14:42:24 23° 302° (WNW) 14:45:55 437.505/2401.250
ITAMSAT 1 26 Jun 14:39:30 14:44:30 49° 65° (ENE) 14:49:33 435.822/435.867
ISS 26 Jun 14:40:57 14:44:09 53° 191° (SSW) 14:47:22 145.825
JAS-2 26 Jun 14:45:04 14:51:17 27° 270° (W) 14:57:06 435.910
ITUPSAT 1 26 Jun 14:48:30 14:51:37 17° 88° (E) 14:54:44 437.325
BEESAT 26 Jun 14:49:02 14:52:13 17° 88° (E) 14:55:22 436.000
YUBILEINY 26 Jun 14:49:31 14:58:13 71° 285° (WNW) 15:07:02 435.215
AO-7 26 Jun 14:50:27 14:58:20 50° 55° (NE) 15:06:17 29.400- 29.500
AISAT 26 Jun 14:52:56 14:56:25 23° 301° (WNW) 14:59:53 437.250
AIST 2 26 Jun 14:55:17 14:59:20 51° 233° (SW) 15:03:22 435.215
Cosmos 2491 26 Jun 14:57:19 15:03:55 25° 284° (WNW) 15:10:31 435.465 / 435.565
TISAT 1 26 Jun 15:05:03 15:09:17 88° 97° (E) 15:13:30 437.305
UKube-1 26 Jun 15:06:01 15:09:36 26° 300° (WNW) 15:13:10 .
SPROUT 26 Jun 15:12:07 15:15:47 28° 298° (WNW) 15:19:27 437.525
RS-15 26 Jun 15:18:09 15:29:51 72° 324° (NW) 15:42:10 29.354- 29.394
DX 1 26 Jun 15:21:53 15:24:48 18° 305° (NW) 15:27:41 434.975-435.025
Cosmos 2504 26 Jun 15:31:16 15:39:28 81° 98° (E) 15:48:17 435.465 / 435.565
SWISSCUBE 26 Jun 16:00:10 16:05:00 69° 103° (ESE) 16:09:47 437.505
Gurwin Techsat 1B 26 Jun 16:01:27 16:05:27 21° 271° (W) 16:09:29 435.225
NOAA 15 26 Jun 16:04:11 16:05:15 11° 41° (NE) 16:06:18 137.62
NOAA 18 26 Jun 16:08:18 16:09:40 11° 39° (NE) 16:11:01 137.9125
KKS-1 26 Jun 16:16:03 16:18:45 16° 88° (E) 16:21:26 437.445
ISS 26 Jun 16:17:37 16:20:12 21° 211° (SSW) 16:22:46 145.825
ITAMSAT 1 26 Jun 16:19:31 16:24:11 32° 265° (W) 16:28:54 435.822/435.867
ITUPSAT 1 26 Jun 16:25:15 16:30:06 83° 289° (WNW) 16:34:55 437.325
BEESAT 26 Jun 16:25:47 16:30:37 81° 288° (WNW) 16:35:25 436.000
SO-50 26 Jun 16:27:22 16:29:50 14° 110° (ESE) 16:32:17 436.795
Cubesat XI-IV 26 Jun 16:31:29 16:33:47 13° 44° (NE) 16:36:04 437.490
TISAT 1 26 Jun 16:41:53 16:44:23 16° 305° (NW) 16:46:53 437.305
AO-7 26 Jun 16:42:56 16:51:05 56° 257° (WSW) 16:59:20 29.400- 29.500
HORYU 2 26 Jun 16:44:50 16:49:04 47° 67° (ENE) 16:53:22 437.375
YUBILEINY 26 Jun 16:50:19 16:56:55 23° 312° (NW) 17:03:35 435.215
AIST 1 26 Jun 16:53:16 16:54:34 11° 80° (E) 16:55:52
HO-68 26 Jun 16:54:00 16:55:26 11° 23° (NNE) 16:56:53 435.675
STARS 26 Jun 16:54:12 16:57:21 19° 90° (E) 17:00:30 437.465
CUTE-I 26 Jun 17:04:35 17:08:24 20° 52° (NE) 17:12:15 437.470
MOZHAYETS 4 26 Jun 17:25:08 17:29:45 58° 101° (E) 17:34:20
Cosmos 2504 26 Jun 17:26:38 17:33:57 33° 303° (WNW) 17:41:40 435.465 / 435.565
RS-15 26 Jun 17:32:57 17:44:31 50° 356° (N) 17:56:27 29.354- 29.394
LilacSat-2 26 Jun 17:33:51 17:36:31 18° 60° (ENE) 17:39:12 437.200
SWISSCUBE 26 Jun 17:38:40 17:42:23 23° 304° (WNW) 17:46:05 437.505
NOAA 15 26 Jun 17:38:50 17:43:46 41° 63° (ENE) 17:48:42 137.62
NOAA 18 26 Jun 17:43:55 17:48:59 40° 61° (ENE) 17:54:04 137.9125
BRITE-PL 26 Jun 17:47:14 17:51:49 39° 66° (ENE) 17:56:06 437.365/2234.400
KKS-1 26 Jun 17:51:27 17:55:54 81° 288° (WNW) 18:00:22 437.445
ITUPSAT 1 26 Jun 18:04:11 18:07:17 17° 308° (NW) 18:10:22 437.325
SO-50 26 Jun 18:04:39 18:09:31 67° 130° (SE) 18:14:20 436.795
BEESAT 26 Jun 18:04:43 18:07:43 17° 308° (NW) 18:10:43 436.000
Cubesat XI-IV 26 Jun 18:07:34 18:12:44 50° 65° (ENE) 18:17:55 437.490
DOVE 4 26 Jun 18:08:16 18:10:49 16° 56° (ENE) 18:13:21 437.250
HORYU 2 26 Jun 18:22:07 18:25:51 26° 266° (W) 18:29:39 437.375
Cosmos 2499 26 Jun 18:24:25 18:30:27 22° 73° (ENE) 18:36:41 435.465 / 435.565
AIST 1 26 Jun 18:27:05 18:31:24 80° 101° (E) 18:35:45
STARS 26 Jun 18:29:47 18:34:10 65° 289° (WNW) 18:38:31 437.465
GOMX 1 26 Jun 18:32:29 18:36:49 45° 68° (ENE) 18:40:57 467.674
HO-68 26 Jun 18:35:06 18:40:52 27° 47° (NE) 18:46:40 435.675
AO-7 26 Jun 18:41:55 18:45:55 14° 281° (W) 18:49:56 29.400- 29.500
CUTE-I 26 Jun 18:42:25 18:47:47 87° 73° (ENE) 18:53:13 437.470
CUBESAT XI-V 26 Jun 18:46:40 18:51:13 51° 100° (E) 18:55:43 437.345
GONETS M04 26 Jun 18:51:04 18:59:02 42° 85° (E) 19:06:59
MOZHAYETS 4 26 Jun 19:02:51 19:06:37 25° 301° (WNW) 19:10:22
CUSAT 1 26 Jun 19:03:51 19:08:21 55° 70° (ENE) 19:11:46 437.405
DANDE 26 Jun 19:05:18 19:10:50 34° 60° (ENE) 19:15:04 436.750
LilacSat-2 26 Jun 19:06:45 19:10:29 57° 259° (W) 19:14:16 437.200
CANX-2 26 Jun 19:13:40 19:16:55 21° 59° (ENE) 19:20:11 2200.000
STRAND 1 26 Jun 19:16:18 19:17:43 11° 82° (E) 19:19:07 437.568
NOAA 15 26 Jun 19:18:38 19:23:36 40° 263° (W) 19:28:34 137.62
CINEMA 3 26 Jun 19:19:03 19:22:17 22° 60° (ENE) 19:25:32 145.822/145.860
NOAA 18 26 Jun 19:24:26 19:29:38 43° 261° (W) 19:34:54 137.9125
COMPASS 1 26 Jun 19:25:04 19:27:24 15° 55° (NE) 19:29:45 437.405
BRITE-PL 26 Jun 19:25:47 19:30:22 35° 264° (W) 19:34:40 437.365/2234.400
Cosmos 2504 26 Jun 19:28:03 19:31:00 12° 333° (NNW) 19:33:59 435.465 / 435.565
KKS-1 26 Jun 19:29:18 19:31:49 15° 307° (NW) 19:34:21 437.445
M-CUBED/EXP-1 PRIME 26 Jun 19:31:47 19:33:17 13° 49° (NE) 19:34:48 437.505
CUBEBUG 2 26 Jun 19:32:29 19:34:21 13° 52° (NE) 19:36:13 437.445
CUTE 1.7 + AOD 2 26 Jun 19:33:38 19:37:15 27° 62° (ENE) 19:40:54 437.475
SEEDS 26 Jun 19:41:46 19:45:15 25° 61° (ENE) 19:48:45 437.485
DOVE 4 26 Jun 19:43:44 19:48:03 83° 257° (WSW) 19:52:15 437.250
SO-50 26 Jun 19:45:47 19:50:20 37° 331° (NNW) 19:54:50 436.795
RS-15 26 Jun 19:47:28 19:59:35 62° 28° (NNE) 20:11:51 29.354- 29.394
Cubesat XI-IV 26 Jun 19:48:15 19:53:02 33° 266° (W) 19:57:52 437.490
AIST 1 26 Jun 20:06:56 20:09:38 16° 300° (WNW) 20:12:18
STARS 26 Jun 20:07:53 20:09:44 13° 310° (NW) 20:11:35 437.465
ZACube-1 26 Jun 20:07:54 20:10:04 14° 53° (NE) 20:12:16 437.345
GOMX 1 26 Jun 20:11:16 20:15:08 26° 266° (W) 20:18:49 467.674
Cosmos 2499 26 Jun 20:13:46 20:22:09 77° 97° (E) 20:31:02 435.465 / 435.565
HO-68 26 Jun 20:20:38 20:27:49 87° 71° (ENE) 20:35:04 435.675
Oscar 11 26 Jun 20:21:00 20:24:02 19° 57° (ENE) 20:27:04 145.826/435.025
UWE-3 26 Jun 20:22:34 20:25:55 23° 60° (ENE) 20:29:21 435.000/436.395/437.385
CUBESAT XI-V 26 Jun 20:24:28 20:28:24 27° 299° (WNW) 20:32:16 437.345
CUTE-I 26 Jun 20:24:57 20:28:35 18° 273° (W) 20:32:15 437.470
FUNcube-1 26 Jun 20:25:48 20:28:40 18° 56° (ENE) 20:31:36 145.935
AAUSAT CUBESAT 2 26 Jun 20:26:33 20:30:26 37° 66° (ENE) 20:34:20 437.432
AUBIESAT-1 26 Jun 20:26:55 20:29:54 33° 60° (ENE) 20:32:58 437.475
GONETS M04 26 Jun 20:47:04 20:55:37 59° 289° (WNW) 21:04:15
CUSAT 1 26 Jun 20:47:06 20:49:39 16° 280° (W) 20:51:52 437.405
CANX-2 26 Jun 20:48:10 20:52:26 61° 259° (W) 20:56:44 2200.000
DANDE 26 Jun 20:48:20 20:53:52 43° 269° (W) 20:58:02 436.750
STRAND 1 26 Jun 20:52:50 20:57:59 62° 102° (ESE) 21:03:05 437.568
CINEMA 3 26 Jun 20:55:07 20:59:10 52° 260° (W) 21:03:17 145.822/145.860
DELFI C3 26 Jun 20:57:06 20:59:55 18° 59° (ENE) 21:02:45 145.870
COMPASS 1 26 Jun 20:58:07 21:02:21 86° 75° (ENE) 21:06:37 437.405
YUBILEINY 26 Jun 21:00:43 21:01:10 10° 21° (NNE) 21:01:37 435.215
M-CUBED/EXP-1 PRIME 26 Jun 21:04:08 21:07:24 80° 249° (WSW) 21:10:43 437.505
CUBEBUG 2 26 Jun 21:06:03 21:10:12 72° 72° (ENE) 21:14:30 437.445
CUTE 1.7 + AOD 2 26 Jun 21:08:50 21:12:57 44° 262° (W) 21:17:06 437.475
PRISM 26 Jun 21:10:39 21:13:26 17° 90° (E) 21:16:12 437.425
SEEDS 26 Jun 21:16:36 21:20:43 49° 261° (W) 21:24:54 437.485
DOVE 4 26 Jun 21:25:03 21:26:29 11° 275° (W) 21:27:53 437.250
SO-50 26 Jun 21:28:13 21:32:02 22° 355° (N) 21:35:47 436.795
HUMSAT D 26 Jun 21:37:44 21:41:05 24° 60° (ENE) 21:44:29 437.325/437.525
ZACube-1 26 Jun 21:41:26 21:45:38 78° 75° (ENE) 21:50:00 437.345
Oscar 11 26 Jun 21:55:21 21:59:42 74° 257° (WSW) 22:04:05 145.826/435.025
AO-85 26 Jun 21:57:44 22:00:35 15° 110° (ESE) 22:03:23 145.980
UWE-3 26 Jun 21:58:00 22:02:07 53° 260° (W) 22:06:21 435.000/436.395/437.385
FUNcube-1 26 Jun 22:00:12 22:04:25 75° 257° (WSW) 22:08:46 145.935
RS-15 26 Jun 22:00:30 22:12:39 69° 236° (WSW) 22:24:47 29.354- 29.394
AUBIESAT-1 26 Jun 22:01:50 22:04:32 23° 259° (W) 22:07:16 437.475
AAUSAT CUBESAT 2 26 Jun 22:02:16 22:05:59 30° 265° (W) 22:09:45 437.432
Cosmos 2499 26 Jun 22:08:38 22:16:14 35° 302° (WNW) 22:24:12 435.465 / 435.565
HO-68 26 Jun 22:10:48 22:16:27 25° 271° (W) 22:22:10 435.675
DELFI C3 26 Jun 22:30:22 22:34:23 66° 257° (WSW) 22:38:26 145.870
ESTCUBE 1 26 Jun 22:31:43 22:35:05 21° 57° (ENE) 22:38:28 437.505/2401.250
STRAND 1 26 Jun 22:32:32 22:36:50 27° 302° (WNW) 22:41:07 437.568
COMPASS 1 26 Jun 22:36:22 22:38:32 14° 274° (W) 22:40:42 437.405
AISAT 26 Jun 22:44:32 22:47:37 19° 56° (NE) 22:50:42 437.250
CUBEBUG 2 26 Jun 22:44:48 22:47:24 16° 273° (W) 22:50:03 437.445
PRISM 26 Jun 22:45:06 22:49:10 63° 290° (WNW) 22:53:12 437.425
GONETS M04 26 Jun 22:48:52 22:54:45 19° 316° (NW) 23:00:39
TIGRISAT 26 Jun 22:53:21 22:56:33 18° 89° (E) 22:59:47 435.000
YUBILEINY 26 Jun 22:54:57 23:02:13 27° 53° (NE) 23:09:26 435.215
UKube-1 26 Jun 22:56:07 22:58:47 16° 54° (NE) 23:01:27 .
UNISAT 6 26 Jun 22:57:36 23:01:05 21° 90° (E) 23:04:36 437.425
SPROUT 26 Jun 23:02:21 23:04:17 13° 52° (NE) 23:06:13 437.525
SO-50 26 Jun 23:09:44 23:13:53 28° 20° (NNE) 23:17:56 436.795
DX 1 26 Jun 23:11:10 23:14:40 24° 59° (ENE) 23:18:11 434.975-435.025
HUMSAT D 26 Jun 23:12:22 23:16:27 51° 260° (W) 23:20:38 437.325/437.525
ZACube-1 26 Jun 23:20:05 23:22:33 15° 273° (W) 23:25:04 437.345
Cosmos 2504 26 Jun 23:23:00 23:28:31 17° 40° (NE) 23:34:01 435.465 / 435.565
AO-85 26 Jun 23:34:57 23:40:17 64° 129° (SE) 23:45:23 145.980
Oscar 11 26 Jun 23:35:31 23:36:39 11° 276° (W) 23:37:46 145.826/435.025
CUBEBUG 1 26 Jun 23:36:01 23:40:12 46° 68° (ENE) 23:44:22 437.445
ANTELSAT 26 Jun 23:36:56 23:41:22 43° 98° (E) 23:45:49 437.575/2403.000
VELOX 1 26 Jun 23:38:47 23:43:01 47° 67° (ENE) 23:47:16 145.980
FUNcube-1 26 Jun 23:40:32 23:41:31 11° 277° (W) 23:42:30 145.935
50 SAT 26 Jun 23:41:41 23:45:17 49° 69° (ENE) 23:48:55 437.505
POPSAT HIP 1 26 Jun 23:42:57 23:43:41 10° 84° (E) 23:44:24 437.405
QB50P2 26 Jun 23:53:24 23:55:43 14° 87° (E) 23:58:03 145.880/145.840
POLYITAN 1 26 Jun 23:55:58 23:58:22 15° 87° (E) 00:00:45 437.675
DUCHIFAT 1 26 Jun 23:58:26 00:00:35 14° 87° (E) 00:02:45 145.980
ESTCUBE 1 27 Jun 00:06:56 00:11:29 70° 257° (WSW) 00:16:02 437.505/2401.250
Cosmos 2499 27 Jun 00:09:21 00:12:53 13° 331° (NNW) 00:16:28 435.465 / 435.565
RS-15 27 Jun 00:14:10 00:22:53 24° 262° (W) 00:31:37 29.354- 29.394
Cosmos 2491 27 Jun 00:14:31 00:21:02 24° 75° (ENE) 00:27:33 435.465 / 435.565
AISAT 27 Jun 00:19:13 00:23:38 75° 255° (WSW) 00:28:03 437.250
PRISM 27 Jun 00:22:30 00:23:42 11° 310° (NW) 00:24:53 437.425
TISAT 1 27 Jun 00:28:14 00:31:29 22° 60° (ENE) 00:34:45 437.305
TIGRISAT 27 Jun 00:29:08 00:33:44 73° 288° (WNW) 00:38:24 435.000
UKube-1 27 Jun 00:29:56 00:34:16 89° 248° (WSW) 00:38:37 .
UNISAT 6 27 Jun 00:33:39 00:38:13 64° 289° (WNW) 00:42:51 437.425
SPROUT 27 Jun 00:35:17 00:39:31 72° 72° (ENE) 00:43:47 437.525
DX 1 27 Jun 00:46:22 00:50:37 53° 259° (W) 00:54:54 434.975-435.025
SO-50 27 Jun 00:50:18 00:55:05 76° 42° (NE) 00:59:41 436.795
YUBILEINY 27 Jun 00:51:36 01:00:30 84° 79° (E) 01:09:23 435.215
BUGSAT 1 27 Jun 01:01:32 01:04:57 25° 94° (E) 01:08:22 437.445
NANOSAT C BR1 27 Jun 01:11:06 01:15:20 64° 102° (ESE) 01:19:33 145.865
QB50P1 27 Jun 01:12:58 01:17:13 70° 103° (ESE) 01:21:28 145.935-145.965
CUBEBUG 1 27 Jun 01:13:04 01:16:42 25° 267° (W) 01:20:21 437.445
ANTELSAT 27 Jun 01:13:55 01:17:59 32° 297° (WNW) 01:22:06 437.575/2403.000
Cosmos 2504 27 Jun 01:15:54 01:24:34 50° 67° (ENE) 01:33:00 435.465 / 435.565
POPSAT HIP 1 27 Jun 01:15:59 01:20:16 73° 105° (ESE) 01:24:31 437.405
VELOX 1 27 Jun 01:16:01 01:19:43 26° 267° (W) 01:23:25 145.980
AO-85 27 Jun 01:16:05 01:21:06 40° 329° (NNW) 01:25:50 145.980
50 SAT 27 Jun 01:16:32 01:19:14 19° 269° (W) 01:21:57 437.505
QB50P2 27 Jun 01:27:51 01:32:08 83° 287° (WNW) 01:36:24 145.880/145.840
POLYITAN 1 27 Jun 01:30:27 01:34:45 82° 287° (WNW) 01:39:02 437.675
DUCHIFAT 1 27 Jun 01:32:39 01:36:54 86° 282° (WNW) 01:41:09 145.980
SWISSCUBE 27 Jun 01:36:01 01:40:07 28° 60° (ENE) 01:44:13 437.505
JAS-2 27 Jun 01:46:44 01:52:17 39° 94° (E) 01:57:19 435.910
ESTCUBE 1 27 Jun 01:47:59 01:49:09 11° 277° (W) 01:50:19 437.505/2401.250
AISAT 27 Jun 01:59:36 02:00:55 11° 275° (W) 02:02:14 437.250
ITUPSAT 1 27 Jun 02:00:51 02:05:18 39° 64° (ENE) 02:09:47 437.325
BEESAT 27 Jun 02:01:04 02:05:30 40° 64° (ENE) 02:10:00 436.000
TISAT 1 27 Jun 02:02:47 02:06:51 54° 259° (W) 02:10:59 437.305
TIGRISAT 27 Jun 02:07:14 02:09:43 15° 307° (NW) 02:12:13 435.000
Cosmos 2491 27 Jun 02:07:53 02:16:40 85° 98° (E) 02:25:28 435.465 / 435.565
UKube-1 27 Jun 02:08:56 02:10:59 13° 273° (W) 02:13:02 .
UNISAT 6 27 Jun 02:12:01 02:14:08 13° 309° (NW) 02:16:15 437.425
SPROUT 27 Jun 02:13:18 02:16:00 16° 272° (W) 02:18:41 437.525
PCSat 27 Jun 02:16:54 02:18:58 12° 102° (ESE) 02:21:02 145.827
Oscar 19 27 Jun 02:27:23 02:32:01 33° 95° (E) 02:36:38 437.125/150
Gurwin Techsat 1B 27 Jun 02:30:05 02:33:47 19° 87° (E) 02:37:27 435.225
SO-50 27 Jun 02:31:26 02:35:07 23° 244° (WSW) 02:38:42 436.795
BUGSAT 1 27 Jun 02:36:39 02:40:30 42° 293° (WNW) 02:44:23 437.445
NANOSAT C BR1 27 Jun 02:47:35 02:50:42 20° 302° (WNW) 02:53:49 145.865
YUBILEINY 27 Jun 02:49:14 02:56:23 29° 282° (WNW) 03:03:31 435.215
QB50P1 27 Jun 02:49:35 02:52:36 19° 302° (WNW) 02:55:35 145.935-145.965
POPSAT HIP 1 27 Jun 02:52:40 02:55:36 18° 303° (WNW) 02:58:32 437.405
GONETS M04 27 Jun 02:56:48 02:59:16 11° 26° (NNE) 03:01:45
MOZHAYETS 4 27 Jun 02:57:34 03:00:57 20° 57° (ENE) 03:04:21
AO-85 27 Jun 02:58:42 03:02:46 23° 352° (N) 03:06:37 145.980
O/OREOS (USA 219) 27 Jun 03:03:53 03:06:19 14° 99° (E) 03:08:44 437.305
QB50P2 27 Jun 03:04:59 03:07:19 15° 306° (NW) 03:09:38 145.880/145.840
POLYITAN 1 27 Jun 03:07:37 03:09:55 14° 306° (NW) 03:12:13 437.675
Cosmos 2504 27 Jun 03:09:34 03:18:08 53° 271° (W) 03:26:28 435.465 / 435.565
DUCHIFAT 1 27 Jun 03:09:38 03:11:59 15° 306° (NW) 03:14:22 145.980
SWISSCUBE 27 Jun 03:13:01 03:17:42 52° 260° (W) 03:22:25 437.505
